Gibraltar, Gibraltar

8:43 AM CEST on October 22, 2017 (GMT +0200)
Gibraltar Air Base

Weather History for LXGB - November, 2013

Change the Weather History Date:

Wednesday, November 27, 2013

  Actual Average Record
Temperature  
Mean Temperature 59 °F -  
Max Temperature 60 °F 60 °F 69 °F (2000)
Min Temperature 58 °F 52 °F 44 °F (2005)
Degree Days  
Heating Degree Days 6    
Growing Degree Days 9 (Base 50)    
Moisture  
Dew Point 49 °F    
Average Humidity 66    
Maximum Humidity 77    
Minimum Humidity 55    
Precipitation  
Precipitation 0.00 in - - ()
Sea Level Pressure  
Sea Level Pressure 30.09 in    
Wind  
Wind Speed 23 mph ()    
Max Wind Speed 31 mph    
Max Gust Speed 38 mph    
Visibility 7.4 miles    
Events Rain    
Averages and records for this station are not official NWS values.
T = Trace of Precipitation, MM = Missing Value Source: Averaged Metar Reports

Daily Weather History Graph

Daily Weather History Graph

Search for Another Location

Airport or City:

Trip Planner

Search our weather history database for the weather conditions in past years. The results will help you decide how hot, cold, wet, or windy it might be!

Date:

Astronomy

Nov. 27, 2013 Rise Set
Actual Time 8:10 AM CET 6:07 PM CET
Civil Twilight 7:42 AM CET 6:35 PM CET
Nautical Twilight 7:10 AM CET 7:07 PM CET
Astronomical Twilight 6:39 AM CET 7:38 PM CET
Moon 2:08 AM CET (11/27) 2:28 PM CET (11/27)
Length of Visible Light 10h 53m
Length of Day
9h 57m
Waning Crescent, 34% of the Moon is Illuminated
Nov 27
Waning Crescent
Dec 3
New
Dec 9
First Quarter
Dec 17
Full
Dec 25
Last Quarter

Hourly Weather History & Observations

Time (CET) Temp. Dew Point Humidity Pressure Visibility Wind Dir Wind Speed Gust Speed Precip Events Conditions
12:00 AM 59 °F 47 °F 55% 30.13 in 10 mi East 28.8 mph - -   Scattered Clouds
12:50 AM 59.0 °F 48.2 °F 67% 30.09 in 6.2 mi East 28.8 mph - N/A   Partly Cloudy
1:00 AM 59 °F 48 °F 58% 30.12 in 9 mi East 28.8 mph - -   Scattered Clouds
1:50 AM 59.0 °F 48.2 °F 67% 30.09 in 6.2 mi East 28.8 mph - N/A   Scattered Clouds
2:00 AM 59 °F 48 °F 58% 30.10 in 9 mi East 28.8 mph - -   Scattered Clouds
2:50 AM 59.0 °F 46.4 °F 63% 30.06 in 6.2 mi East 31.1 mph - N/A   Mostly Cloudy
3:00 AM 59 °F 47 °F 55% 30.09 in 9 mi East 31.1 mph - -   Scattered Clouds
3:50 AM 59.0 °F 48.2 °F 67% 30.06 in 6.2 mi East 29.9 mph - N/A   Mostly Cloudy
4:50 AM 59.0 °F 48.2 °F 67% 30.06 in 6.2 mi East 28.8 mph - N/A   Mostly Cloudy
5:00 AM 59 °F 48 °F 58% 30.07 in 9 mi East 28.8 mph - -   Scattered Clouds
5:50 AM 59.0 °F 48.2 °F 67% 30.06 in 6.2 mi East 26.5 mph 38.0 mph N/A   Mostly Cloudy
6:00 AM 59 °F 48 °F 57% 30.06 in 9 mi East 26.5 mph - -   Mostly Cloudy
6:50 AM 59.0 °F 48.2 °F 67% 30.06 in 6.2 mi East 25.3 mph 38.0 mph N/A   Mostly Cloudy
7:00 AM 59 °F 48 °F 59% 30.07 in 9 mi East 25.3 mph - -   Mostly Cloudy
7:50 AM 59.0 °F 50.0 °F 72% 30.06 in 6.2 mi East 25.3 mph 38.0 mph N/A   Mostly Cloudy
8:00 AM 59 °F 49 °F 62% 30.08 in 9 mi East 25.3 mph - -   Mostly Cloudy
8:50 AM 59.0 °F 48.2 °F 67% 30.09 in 6.2 mi East 21.9 mph 34.5 mph N/A   Mostly Cloudy
9:00 AM 59 °F 48 °F 59% 30.10 in 7 mi East 21.9 mph - -   Mostly Cloudy
9:50 AM 59.0 °F 50.0 °F 72% 30.09 in 6.2 mi East 23.0 mph 35.7 mph N/A Rain Light Rain
10:50 AM 59.0 °F 51.8 °F 77% 30.12 in 6.2 mi East 21.9 mph 34.5 mph N/A Rain Light Rain
11:00 AM 59 °F 51 °F 67% 30.13 in 7 mi East 21.9 mph - - Rain Light Rain
11:50 AM 59.0 °F 51.8 °F 77% 30.12 in 6.2 mi East 20.7 mph 32.2 mph N/A   Mostly Cloudy
12:00 PM 60 °F 51 °F 65% 30.13 in 7 mi East 20.7 mph - - Rain Light Rain
12:50 PM 59.0 °F 50.0 °F 72% 30.09 in 6.2 mi East 21.9 mph 33.4 mph N/A   Mostly Cloudy
1:00 PM 59 °F 51 °F 66% 30.12 in 9 mi East 21.9 mph - -   Partly Cloudy
1:50 PM 59.0 °F 51.8 °F 77% 30.09 in 6.2 mi ENE 19.6 mph - N/A   Mostly Cloudy
2:00 PM 60 °F 51 °F 64% 30.10 in 9 mi ENE 19.6 mph - -   Mostly Cloudy
2:50 PM 59.0 °F 50.0 °F 72% 30.06 in 6.2 mi East 20.7 mph 32.2 mph N/A   Mostly Cloudy
3:00 PM 60 °F 51 °F 63% 30.09 in 9 mi East 20.7 mph - -   Mostly Cloudy
3:50 PM 59.0 °F 48.2 °F 67% 30.06 in 6.2 mi East 19.6 mph - N/A   Mostly Cloudy
4:50 PM 59.0 °F 50.0 °F 72% 30.06 in 6.2 mi East 17.3 mph - N/A   Mostly Cloudy
5:00 PM 59 °F 50 °F 63% 30.09 in 9 mi East 17.3 mph - -   Partly Cloudy
5:50 PM 59.0 °F 48.2 °F 67% 30.06 in 6.2 mi East 17.3 mph - N/A   Mostly Cloudy
6:00 PM 59 °F 49 °F 60% 30.09 in 9 mi East 17.3 mph - -   Mostly Cloudy
6:50 PM 59.0 °F 50.0 °F 72% 30.09 in 6.2 mi East 17.3 mph - N/A   Mostly Cloudy
7:00 PM 59 °F 50 °F 63% 30.10 in 9 mi East 17.3 mph - -   Partly Cloudy
7:50 PM 59.0 °F 50.0 °F 72% 30.09 in 6.2 mi East 16.1 mph - N/A   Mostly Cloudy
8:00 PM 59 °F 50 °F 63% 30.12 in 9 mi East 16.1 mph - -   Scattered Clouds
8:50 PM 59.0 °F 50.0 °F 72% 30.12 in 6.2 mi East 17.3 mph - N/A   Mostly Cloudy
9:00 PM 59 °F 49 °F 61% 30.12 in 9 mi East 17.3 mph - -   Scattered Clouds
9:50 PM 59.0 °F 48.2 °F 67% 30.12 in 6.2 mi East 16.1 mph - N/A   Mostly Cloudy
10:50 PM 59.0 °F 48.2 °F 67% 30.12 in 6.2 mi East 20.7 mph - N/A   Mostly Cloudy
11:00 PM 59 °F 49 °F 59% 30.14 in 9 mi East 20.7 mph - -   Scattered Clouds
11:50 PM 59.0 °F 48.2 °F 67% 30.12 in 6.2 mi East 26.5 mph - N/A   Mostly Cloudy